Cairns, Australia

10:43 PM AEST on January 24, 2017 (GMT +1000)
Cairns

Weather History for 94287 - July, 2013

Change the Weather History Date:

Monday, July 29, 2013

  Actual Average Record
Temperature  
Mean Temperature 73 °F -  
Max Temperature 80 °F 80 °F - ()
Min Temperature 66 °F 64 °F - ()
Cooling Degree Days 8    
Growing Degree Days 23 (Base 50)    
Moisture  
Dew Point 61 °F    
Average Humidity 68    
Maximum Humidity 88    
Minimum Humidity 38    
Precipitation  
Precipitation 0.00 in 0.03 in - ()
Sea Level Pressure  
Sea Level Pressure 30.01 in    
Wind  
Wind Speed 12 mph ()    
Max Wind Speed 20 mph    
Max Gust Speed -    
Visibility 7.2 miles    
Events Rain    
T = Trace of Precipitation, MM = Missing Value Source: Averaged Metar Reports

Daily Weather History Graph

Daily Weather History Graph

Search for Another Location

Airport or City:

Trip Planner

Search our weather history database for the weather conditions in past years. The results will help you decide how hot, cold, wet, or windy it might be!

Date:

Astronomy

Jul. 29, 2013 Rise Set
Actual Time 6:43 AM AEST 6:03 PM AEST
Civil Twilight 6:20 AM AEST 6:26 PM AEST
Nautical Twilight 5:54 AM AEST 6:52 PM AEST
Astronomical Twilight 5:28 AM AEST 7:18 PM AEST
Moon No Moon Rise 11:16 AM AEST (7/29)
Length of Visible Light 12h 05m
Length of Day
11h 20m
Waning Gibbous, 57% of the Moon is Illuminated
Jul 29
Waning Gibbous
Jul 30
Last Quarter
Aug 7
New
Aug 14
First Quarter
Aug 21
Full

Hourly Weather History & Observations

Time (AEST) Temp. Heat Index Dew Point Humidity Pressure Visibility Wind Dir Wind Speed Gust Speed Precip Events Conditions
12:00 AM 68 °F - 65 °F 87% 30.06 in - SE 10.4 mph - -   Overcast
12:00 AM 68.0 °F - 64.4 °F 88% 30.06 in 5.0 mi SE 10.4 mph - N/A Rain Light Rain Showers
12:30 AM 68.0 °F - 64.4 °F 88% 30.06 in 5.0 mi SSE 11.5 mph - N/A Rain Light Rain Showers
1:00 AM 68 °F - 64 °F 82% 30.06 in - South 10.4 mph - -  
1:00 AM 68.0 °F - 64.4 °F 88% 30.04 in 6.2 mi South 10.4 mph - N/A   Mostly Cloudy
1:30 AM 68.0 °F - 62.6 °F 83% 30.04 in 6.2 mi South 10.4 mph - N/A   Mostly Cloudy
2:00 AM 68.0 °F - 62.6 °F 83% 30.04 in 6.2 mi South 9.2 mph - N/A   Mostly Cloudy
2:30 AM 68.0 °F - 62.6 °F 83% 30.04 in 6.2 mi South 11.5 mph - N/A   Mostly Cloudy
3:00 AM 68 °F - 62 °F 77% 30.04 in - South 8.1 mph - -  
3:00 AM 68.0 °F - 62.6 °F 83% 30.04 in 6.2 mi South 8.1 mph - N/A   Scattered Clouds
3:30 AM 68.0 °F - 62.6 °F 83% 30.01 in 6.2 mi South 11.5 mph - N/A   Partly Cloudy
4:00 AM 68 °F - 62 °F 76% 30.04 in - South 11.5 mph - -  
4:00 AM 68.0 °F - 62.6 °F 83% 30.04 in 6.2 mi South 11.5 mph - N/A   Scattered Clouds
4:30 AM 68.0 °F - 62.6 °F 83% 30.04 in 6.2 mi South 15.0 mph - N/A   Scattered Clouds
5:00 AM 68.0 °F - 60.8 °F 78% 30.01 in 6.2 mi South 13.8 mph - N/A   Mostly Cloudy
5:30 AM 68.0 °F - 60.8 °F 78% 30.04 in 6.2 mi SSE 10.4 mph - N/A   Scattered Clouds
6:00 AM 68 °F - 60 °F 67% 30.04 in 19 mi South 12.7 mph - -   Partly Cloudy
6:00 AM 68.0 °F - 59.0 °F 73% 30.04 in 6.2 mi South 12.7 mph - N/A   Partly Cloudy
6:30 AM 68.0 °F - 60.8 °F 78% 30.04 in 6.2 mi South 13.8 mph - N/A   Partly Cloudy
7:00 AM 67 °F - 60 °F 73% 30.05 in - South 12.7 mph - -  
7:00 AM 68.0 °F - 60.8 °F 78% 30.04 in 6.2 mi South 12.7 mph - N/A   Partly Cloudy
7:30 AM 68.0 °F - 60.8 °F 78% 30.04 in 6.2 mi South 11.5 mph - N/A   Partly Cloudy
8:00 AM 69.8 °F - 60.8 °F 73% 30.04 in 6.2 mi South 11.5 mph - N/A   Partly Cloudy
8:30 AM 71.6 °F - 60.8 °F 69% 30.06 in 6.2 mi South 12.7 mph - N/A   Partly Cloudy
9:00 AM 72 °F - 61 °F 60% 30.07 in 19 mi South 15.0 mph - -   Partly Cloudy
9:00 AM 71.6 °F - 60.8 °F 69% 30.06 in 6.2 mi South 15.0 mph - N/A   Partly Cloudy
9:30 AM 73.4 °F - 60.8 °F 65% 30.06 in 6.2 mi South 15.0 mph - N/A   Partly Cloudy
10:00 AM 75 °F - 61 °F 52% 30.07 in - SSE 16.1 mph - -  
10:00 AM 75.2 °F - 60.8 °F 61% 30.06 in 6.2 mi SSE 16.1 mph - N/A   Partly Cloudy
10:30 AM 77.0 °F - 60.8 °F 57% 30.06 in 6.2 mi SSE 16.1 mph - N/A   Partly Cloudy
11:00 AM 77.0 °F - 60.8 °F 57% 30.04 in 6.2 mi South 13.8 mph - N/A   Partly Cloudy
11:30 AM 78.8 °F - 60.8 °F 54% 30.04 in 6.2 mi SE 15.0 mph - N/A   Partly Cloudy
12:00 PM 80 °F - 59 °F 38% 30.03 in 19 mi SE 17.3 mph - -   Partly Cloudy
12:00 PM 78.8 °F - 59.0 °F 51% 30.01 in 6.2 mi SE 17.3 mph - N/A   Partly Cloudy
12:30 PM 78.8 °F - 59.0 °F 51% 30.01 in 6.2 mi SE 16.1 mph - N/A   Partly Cloudy
1:00 PM 78 °F - 58 °F 40% 30.00 in - SE 17.3 mph - -  
1:00 PM 78.8 °F - 59.0 °F 51% 29.98 in 6.2 mi SE 17.3 mph - N/A   Partly Cloudy
1:30 PM 78.8 °F - 59.0 °F 51% 29.98 in 6.2 mi SE 15.0 mph - N/A   Partly Cloudy
2:00 PM 80.6 °F 81.5 °F 60.8 °F 51% 29.95 in 6.2 mi ESE 17.3 mph - N/A   Partly Cloudy
2:30 PM 78.8 °F - 59.0 °F 51% 29.95 in 6.2 mi SE 19.6 mph - N/A   Partly Cloudy
3:00 PM 78 °F - 59 °F 42% 29.95 in 19 mi SE 19.6 mph - -   Partly Cloudy
3:00 PM 78.8 °F - 59.0 °F 51% 29.95 in 6.2 mi SE 19.6 mph - N/A   Partly Cloudy
3:30 PM 77.0 °F - 59.0 °F 54% 29.95 in 6.2 mi SE 19.6 mph - N/A   Partly Cloudy
4:00 PM 77 °F - 59 °F 44% 29.95 in - SE 19.6 mph - -  
4:00 PM 77.0 °F - 59.0 °F 54% 29.95 in 6.2 mi SE 19.6 mph - N/A   Partly Cloudy
4:30 PM 75.2 °F - 60.8 °F 61% 29.95 in 6.2 mi SE 17.3 mph - N/A   Partly Cloudy
5:00 PM 75.2 °F - 60.8 °F 61% 29.95 in 6.2 mi SE 17.3 mph - N/A   Partly Cloudy
5:30 PM 73.4 °F - 60.8 °F 65% 29.95 in 6.2 mi SE 16.1 mph - N/A   Partly Cloudy
6:00 PM 71 °F - 61 °F 63% 29.96 in - SSE 13.8 mph - -  
6:00 PM 71.6 °F - 60.8 °F 69% 29.95 in 6.2 mi SSE 13.8 mph - N/A   Partly Cloudy
6:30 PM 69.8 °F - 60.8 °F 73% 29.95 in 6.2 mi SSE 10.4 mph - N/A   Partly Cloudy
7:00 PM 70 °F - 62 °F 67% 29.99 in - South 10.4 mph - -  
7:00 PM 69.8 °F - 60.8 °F 73% 29.98 in 6.2 mi South 10.4 mph - N/A   Partly Cloudy
7:30 PM 69.8 °F - 60.8 °F 73% 29.98 in 6.2 mi South 9.2 mph - N/A   Partly Cloudy
8:00 PM 69.8 °F - 60.8 °F 73% 30.01 in 6.2 mi South 8.1 mph - N/A   Partly Cloudy
8:30 PM 68.0 °F - 60.8 °F 78% 30.01 in 6.2 mi South 9.2 mph - N/A   Partly Cloudy
9:00 PM 69 °F - 61 °F 69% 30.03 in - South 11.5 mph - -  
9:00 PM 68.0 °F - 60.8 °F 78% 30.01 in 6.2 mi South 11.5 mph - N/A   Partly Cloudy
9:30 PM 68.0 °F - 60.8 °F 78% 30.01 in 6.2 mi South 11.5 mph - N/A   Partly Cloudy
10:00 PM 68 °F - 60 °F 69% 30.02 in - South 11.5 mph - -  
10:00 PM 68.0 °F - 60.8 °F 78% 30.01 in - South 11.5 mph - N/A   Clear
10:30 PM 69.8 °F - 59.0 °F 68% 30.01 in - South 12.7 mph - N/A   Clear
11:00 PM 68.0 °F - 59.0 °F 73% 30.01 in 6.2 mi SSE 12.7 mph - N/A   Partly Cloudy
11:30 PM 68.0 °F - 60.8 °F 78% 30.01 in 6.2 mi SSE 13.8 mph - N/A   Partly Cloudy